User: anonymous   Login
Location: Unspecified
(29.9680°N, 0.0000°E)
Time: 02:40:51
(UTC+00:00)
Language:

Vanguard 2 - Orbit

View from above orbital plane
View from above orbital plane
View from above satellite
View from above satellite

Ground track
Ground track

The orbit data is extracted from the following two-line orbital elements,

1    11U 59001A   19166.49505453 -.00000058  00000-0 -38894-4 0  9996
2    11  32.8752 356.7983 1468777 334.3396  19.0882 11.85620505573032
Epoch (UTC): 15 June 2019 11:52:52
Eccentricity: 0.1468777
inclination: 32.8752°
perigee height: 552 km
apogee height: 2939 km
right ascension of ascending node: 356.7983°
argument of perigee: 334.3396°
revolutions per day: 11.85620505
mean anomaly at epoch: 19.0882°
orbit number at epoch: 57303

The dashed part of the orbit path shows where the satellite is in the earth's shadow,  

DLR